El Horno, Honduras

1:14 PM CST on December 09, 2016 (GMT -0600)
Coronel Enrique Soto Cano Air Base

Weather History for MHSC - October, 2012

Change the Weather History Date:

Tuesday, October 23, 2012

  Actual Average Record
Temperature  
Mean Temperature 75 °F -  
Max Temperature 81 °F - - ()
Min Temperature 69 °F - - ()
Cooling Degree Days 10    
Growing Degree Days 25 (Base 50)    
Moisture  
Dew Point 70 °F    
Average Humidity 87    
Maximum Humidity 99    
Minimum Humidity 68    
Precipitation  
Precipitation 0.02 in - - ()
Sea Level Pressure  
Sea Level Pressure 29.75 in    
Wind  
Wind Speed 10 mph ()    
Max Wind Speed 16 mph    
Max Gust Speed 25 mph    
Visibility 6.2 miles    
Events Rain    
T = Trace of Precipitation, MM = Missing Value Source: Averaged Metar Reports

Daily Weather History Graph

Daily Weather History Graph

Search for Another Location

Airport or City:

Trip Planner

Search our weather history database for the weather conditions in past years. The results will help you decide how hot, cold, wet, or windy it might be!

Date:

Astronomy

Oct. 23, 2012 Rise Set
Actual Time 5:43 AM CST 5:25 PM CST
Civil Twilight 5:21 AM CST 5:47 PM CST
Nautical Twilight 4:56 AM CST 6:12 PM CST
Astronomical Twilight 4:31 AM CST 6:37 PM CST
Moon 1:19 PM CST (10/23) 12:31 AM CST (10/23)
Length of Visible Light 12h 26m
Length of Day
11h 42m
Waxing Gibbous, 67% of the Moon is Illuminated
Oct 23
Waxing Gibbous
Oct 29
Full
Nov 6
Last Quarter
Nov 13
New
Nov 20
First Quarter

Hourly Weather History & Observations

Time (CST) Temp. Heat Index Dew Point Humidity Pressure Visibility Wind Dir Wind Speed Gust Speed Precip Events Conditions
12:44 AM 71.6 °F - 68.0 °F 88% 29.77 in 6.2 mi North 9.2 mph - N/A Rain Light Rain
12:55 AM 71.1 °F - 69.3 °F 94% 29.77 in 6.2 mi North 9.2 mph - 0.00 in Rain Rain
12:57 AM 71.6 °F - 69.8 °F 94% 29.77 in 6.2 mi North 9.2 mph - N/A   Overcast
1:55 AM 70.7 °F - 69.3 °F 95% 29.74 in 6.2 mi North 8.1 mph - 0.00 in   Overcast
2:55 AM 70.0 °F - 69.6 °F 99% 29.73 in 6.2 mi NNW 6.9 mph - N/A   Overcast
3:55 AM 69.6 °F - 69.3 °F 99% 29.73 in 6.2 mi NNW 6.9 mph - N/A   Overcast
4:55 AM 70.3 °F - 69.4 °F 97% 29.76 in 6.2 mi NNW 5.8 mph - N/A   Overcast
5:55 AM 69.4 °F - 69.1 °F 99% 29.78 in 6.2 mi NNW 10.4 mph - N/A   Mostly Cloudy
6:55 AM 70.9 °F - 69.8 °F 96% 29.80 in 6.2 mi NW 9.2 mph - N/A   Overcast
7:55 AM 73.0 °F - 69.3 °F 88% 29.81 in 6.2 mi North 12.7 mph - N/A   Mostly Cloudy
8:55 AM 76.3 °F - 70.3 °F 82% 29.81 in 6.2 mi NNW 11.5 mph - N/A   Overcast
9:00 AM 74 °F - - %  in 6 mi North 9.2 mph - -   Partly Cloudy
9:55 AM 76.8 °F - 70.3 °F 80% 29.80 in 6.2 mi North 11.5 mph 15.0 mph N/A   Overcast
10:09 AM 75.2 °F - 69.8 °F 83% 29.80 in 6.2 mi North 15.0 mph - N/A   Mostly Cloudy
10:55 AM 79.7 °F - 70.7 °F 74% 29.77 in 6.2 mi North 12.7 mph - 0.01 in   Mostly Cloudy
11:55 AM 80.1 °F 83.7 °F 71.4 °F 75% 29.74 in 6.2 mi NNE 11.5 mph 17.3 mph N/A   Mostly Cloudy
12:11 PM 78.8 °F - 71.6 °F 78% 29.74 in 6.2 mi NNE 12.7 mph - N/A Rain Light Rain
12:18 PM 75.2 °F - 71.6 °F 89% 29.74 in 6.2 mi NNE 12.7 mph - N/A   Mostly Cloudy
12:19 PM 75.2 °F - 71.6 °F 89% 29.74 in 6.2 mi NNE 11.5 mph - N/A Rain Light Rain
12:29 PM 73.4 °F - 71.6 °F 94% 29.74 in 6.2 mi North 13.8 mph - N/A   Mostly Cloudy
12:55 PM 76.5 °F - 70.3 °F 81% 29.73 in 6.2 mi NNE 15.0 mph - 0.00 in   Overcast
1:14 PM 78.8 °F - 69.8 °F 74% 29.71 in 6.2 mi North 16.1 mph - N/A   Light Drizzle
1:23 PM 77.0 °F - 69.8 °F 78% 29.71 in 6.2 mi North 15.0 mph 21.9 mph N/A   Mostly Cloudy
1:55 PM 78.3 °F - 68.9 °F 73% 29.69 in 6.2 mi North 13.8 mph - 0.00 in   Overcast
2:55 PM 78.8 °F - 69.3 °F 72% 29.68 in 6.2 mi North 15.0 mph - N/A   Mostly Cloudy
3:00 PM 78 °F - - %  in 6 mi NNW 6.9 mph - -   Mostly Cloudy
3:55 PM 81.7 °F 85.4 °F 70.0 °F 68% 29.68 in 6.2 mi North 13.8 mph - N/A   Overcast
4:11 PM 77.0 °F - 71.6 °F 83% 29.70 in 6.2 mi NNE 11.5 mph - N/A Rain Light Rain
4:46 PM 73.4 °F - 69.8 °F 88% 29.72 in 6.2 mi NNE 13.8 mph 17.3 mph N/A   Overcast
4:55 PM 73.8 °F - 70.5 °F 90% 29.72 in 6.2 mi NNE 12.7 mph - 0.01 in   Overcast
5:00 PM 73.4 °F - 69.8 °F 88% 29.73 in 6.2 mi NNE 16.1 mph 25.3 mph N/A   Light Drizzle
5:10 PM 73.4 °F - 69.8 °F 88% 29.73 in 6.2 mi NNE 15.0 mph 23.0 mph N/A   Overcast
5:36 PM 71.6 °F - 68.0 °F 88% 29.74 in 6.2 mi NNE 16.1 mph - N/A   Light Drizzle
5:55 PM 71.6 °F - 68.5 °F 90% 29.75 in 6.2 mi NNE 15.0 mph - 0.00 in Rain Light Rain
6:55 PM 72.7 °F - 68.4 °F 86% 29.78 in 6.2 mi NNE 10.4 mph - N/A   Overcast
7:55 PM 72.0 °F - 68.9 °F 90% 29.81 in 6.2 mi North 9.2 mph - N/A   Overcast
8:55 PM 72.5 °F - 68.4 °F 87% 29.81 in 6.2 mi NNE 9.2 mph - N/A   Overcast
9:55 PM 71.6 °F - 68.7 °F 91% 29.82 in 6.2 mi North 10.4 mph - N/A   Mostly Cloudy
10:55 PM 70.9 °F - 68.7 °F 93% 29.80 in 6.2 mi North 9.2 mph - N/A   Mostly Cloudy
11:55 PM 70.9 °F - 68.7 °F 93% 29.80 in 6.2 mi NNW 8.1 mph - N/A   Mostly Cloudy